Погода в Шепетовке

Погода в Шепетовке : погода сейчас, прогноз погоды и архив. Всё, что Вы хотите узнать о погоде в Шепетовке!

Хотите узнать прогноз погоды в Шепетовке? Тогда Вам сюда: Погода в Шепетовке

Поиск расширенной информации на нашем сайте:

Другие новости

Новости СМИ2

Главная страница сайта

Новости сайта

03.07.2017

Напоминаем, что на нашем специализированном сайте Метеоцентр.Азия вы можете получить высокодетализированные автоматические прогнозы погоды по пунктам России, СНГ и мира в авиационном формате (включающие направление и скорость ветра, видимость, явления погоды, количество и форму облачности, нижнюю и верхнюю границу облачности).

Рекомендуем: татарское изготовление кухонь по цене интернет магазина

Погода в Шепетовке - сегодня

Время (UTC), дата Ветер
(°,м/с) 
Видим.   Явления Облачность Т
(°С)
Тd
(°С)
f(%) Тe
(°С)
Pmin
(гПа)
dP
(гПа)
Po
(мм)
O2
(г/м3)
Тmin Tmax R s Состояние
почвы
21 19.11.17 170 (Ю) н/о    ясно 
-0.2 -2.3 86 -1  1011  0.2  733  296           
00 20.11.17 160 (Ю) н/о    3/0 средняя 
[Ac trans]
-0.4 -1.6 92 -2  1010.6  -0.4  732  296           
03 20.11.17 210 (ЮЗ) 4000 м  слаб. ливневой дождь со снегом  10/10 420 м кучево-дожд. 
[Cb cap]
+1.1 +0.3 94 1010  -0.4  732  294           
06 20.11.17 190 (Ю) 10 км  {ливн. осадки}  3/0 средняя 
[Ac trans]
-0.3 -1.2 94 1010  -0.2  732  295  -1    0.8     
09 20.11.17 230 (ЮЗ) 10 км    6/4 600 м средняя 
[Sc|Ac trans]
+1.7 -0.2 87 +1  1010.6  0.9  732  293           
12 20.11.17 220 (ЮЗ) 10 км    8/8 300 м кучево-дожд. 
[Cb cap]
+4.6 -0.7 68 +3  1009.6  -0.6  732  290           
15 20.11.17 210 (ЮЗ) 10 км    8/5 300 м средняя 
[Sc|Ac trans]
+2.4 -1.2 77 +1  1009.7  -0.2  732  292           
18 20.11.17 250 (З) н/о  {ливн. осадки}  9/6 300 м средняя 
[Sc|Ac trans]
+1.1 +0 92 -1  1010.8  0.9  733  294    +5.5  0.0     
21 20.11.17 270 (З) 4000 м  слаб. ливневой дождь  10/10 450 м кучево-дожд. 
[Cb cap]
+0.7 -0.7 90 -2  1011.4  0.5  733  295           
00 21.11.17 270 (З) н/о  {ливн. осадки}  10/10 480 м 
[Sc]
+0.5 -1.2 88 -1  1011.8  0.4  733  295           
03 21.11.17 260 (З) н/о    9/9 500 м 
[Sc]
+0.3 -1.4 88 1011.8  733  295           
06 21.11.17 250 (З) 10 км    9/6 600 м средняя 
[Sc|Ac trans]
-0.5 -1.4 94 -1  1012.7  0.7  734  296  -0.5    0.3     
09 21.11.17 270 (З) 10 км  {ливн. осадки}  8/6 600 м кучево-дожд., средняя 
[Cb cap|Ac trans]
+0.6 -0.5 92 -1  1013.3  0.7  734  295           
12 21.11.17 290 (З) 10 км  {ливн. осадки}  8/8 300 м кучево-дожд. 
[Cb cap]
+0.9 -4 70 1013.2  734  295      0.4     
15 21.11.17 270 (З) н/о    10/10 480 м 
[Sc]
+0.4 -2.4 81 1014  -0.7  735  296           
18 21.11.17 280 (З) н/о    10/10 450 м 
[Sc]
+0.5 -1.4 87 +1  1014.4  0.4  735  296    +0.9  0.4     
21 21.11.17 250 (З) н/о    ясно 
-1.3 -3.6 84 -2  1015  0.3  735  298           
00 22.11.17 270 (З) н/о    8/0 средняя 
[Ac trans]
-0.6 -5 72 1015.1  0.2  735  298           
03 22.11.17 230 (ЮЗ) н/о    8/0 средняя 
[Ac trans]
-0.6 -3.3 82 1015.3  0.2  736  297           
06 22.11.17 210 (ЮЗ) 10 км    8/0 средняя 
[Ac trans]
-1.1 -4 81 -1  1015.7  0.3  736  298  -1.4         
09 22.11.17 200 (Ю) 10 км    6/0 средняя 
[Ac trans]
+1.2 -2 79 +2  1016.2  0.8  736  296           
12 22.11.17 210 (ЮЗ) 10 км    8/5 300 м средняя 
[Sc|Ac trans]
+2.1 -2.8 70 +3  1016.1  736  295           
15 22.11.17 тихо ()   н/о    4/0 средняя 
[Ac As]
-0.8 -3.3 83 -1  1017.3  0.8  737  298           
18 22.11.17 тихо ()   н/о    4/0 средняя 
[Ac trans]
-1.6 -3 90 -2  1018.6  1.2  738  299    +2.7       
21 22.11.17 140 (ЮВ) н/о    6/0 средняя 
[Ac trans]
-1.8 -2.9 92 -1  1019.6  0.9  739  300           
Время (UTC), дата Ветер
(°,м/с) 
Видим.   Явления Облачность Т
(°С)
Тd
(°С)
f(%) Тe
(°С)
Pmin
(гПа)
dP
(гПа)
Po
(мм)
O2
(г/м3)
Тmin Tmax R s Состояние
почвы

Для получения пояснительной информации подведите курсор к названию столбца.

ПОГОДА в Шепетовке - архив

Всё, что Вы хотите узнать о погоде в Шепетовке - удобно и подробно!

Выберите нужную дату (начиная с 1 января 2015* года) и нажмите кнопку "Найти".
Будут отображены архивные сводки погоды по пункту Шепетовка, начиная с указанной даты.


Отображать данные в формате CSV (для использования в таблицах Excel)


Внимание! Наш архив погоды предназначен исключительно для личного некоммерческого использования в познавательных целях. Если Вам необходимы официальные справки о состоянии погоды (для производственных, юридических, коммерческих и т.п. целей), обращайтесь в органы Росгидромета.

*Примечание: данная дата относится к архиву по метеостанциям СССР (Россия, СНГ, Балтия).
Архив по метеостанциям Зарубежной Европы и Азии (кроме Китая) хранится 10 дней, по другим регионам земного шара (Китай, Африка, Америка, Австралия, Океания) - 1 день.

Шепетовка - район местоположения метеостанции


Название, широта, долгота, высота метеостанции:
Шепетовка 50.2°ш. 27°д. 278 м над ур. моря [Украина]

Дополнительная информация

В oтличие oт бoльшинства пoгoдных сайтoв мы публикуем пoдрoбную метеoинфoрмацию в детальнoм прoфессиoнальнoм фoрмате.

Характеристики температуры и влажнoсти вoздуха измеряются на высoте 2 м в тени вдали oт зданий и деревьев.
Скoрoсть ветра измеряется на высoте 10 м (на урoвне рoста челoвека скoрoсть ветра ниже в 1.5-2 раза). Если метеoстанция нахoдится в гoрoде или в лесу, тo скoрoсть ветра занижена на 2-4 м/с пo сравнению с oткрытым местoм. Скoрoсть ветра над акватoриями крупных рек и oзёр, а также на вершинах хoлмoв на 2-5 м/с выше, чем в oбычных услoвиях.
Атмoсфернoе давление в разных тoчках местнoсти мoжет значительнo oтличаться oт давления на метеoстанции, в зависимoсти oт услoвий рельефа (при пoдъёме на 10 м давление пoнижается примернo на 1 мм рт.ст.).